QPF
0.00 0.00 0.00 0.00 0.01 0.03 0.02 0.01 0.00 0.00 0.00 0.00 0.00 0.00 0.00 0.00 0.00 0.00 0.00 0.00 0.00 0.00 0.00 0.00 0.00 0.00 0.00 0.00 0.00 0.00 0.00 0.00 0.00 0.00 0.01 0.01 0.01 0.01 0.01 0.01 0.01 0.01 0.00
0.00 0.00 0.00 0.00 0.01 0.03 0.02 0.01 0.00 0.00 0.00 0.00 0.00 0.00 0.00 0.00 0.00 0.00 0.00 0.00 0.00 0.00 0.00 0.00 0.00 0.00 0.00 0.00 0.00 0.00 0.00 0.01 0.01 0.02 0.03 0.02 0.01 0.01 0.00 0.00 0.01 0.01 0.01
0.00 0.00 0.00 0.00 0.00 0.01 0.02 0.02 0.01 0.01 0.00 0.00 0.00 0.00 0.00 0.00 0.00 0.00 0.00 0.00 0.00 0.00 0.00 0.00 0.00 0.00 0.00 0.00 0.00 0.00 0.01 0.01 0.02 0.03 0.05 0.05 0.02 0.00 0.00 0.00 0.01 0.01 0.01
0.00 0.00 0.00 0.00 0.00 0.01 0.01 0.01 0.01 0.01 0.00 0.00 0.00 0.00 0.00 0.00 0.00 0.00 0.00 0.00 0.00 0.00 0.00 0.00 0.00 0.00 0.00 0.00 0.00 0.00 0.01 0.01 0.01 0.02 0.04 0.03 0.02 0.01 0.01 0.01 0.01 0.02 0.02
0.00 0.00 0.00 0.00 0.00 0.01 0.01 0.01 0.01 0.01 0.00 0.00 0.00 0.00 0.00 0.00 0.00 0.00 0.01 0.00 0.00 0.00 0.00 0.00 0.00 0.00 0.00 0.00 0.00 0.01 0.01 0.02 0.01 0.01 0.01 0.03 0.04 0.01 0.01 0.02 0.02 0.03 0.04
0.00 0.00 0.00 0.00 0.00 0.00 0.00 0.00 0.01 0.01 0.00 0.00 0.00 0.00 0.00 0.00 0.00 0.00 0.01 0.01 0.00 0.00 0.00 0.00 0.00 0.00 0.00 0.00 0.00 0.01 0.01 0.02 0.01 0.01 0.01 0.02 0.04 0.02 0.02 0.02 0.03 0.04 0.05
0.00 0.00 0.00 0.00 0.00 0.00 0.00 0.00 0.00 0.00 0.00 0.00 0.00 0.00 0.00 0.00 0.01 0.01 0.01 0.00 0.00 0.00 0.00 0.00 0.00 0.00 0.00 0.00 0.00 0.00 0.01 0.02 0.02 0.01 0.01 0.02 0.04 0.03 0.03 0.04 0.04 0.04 0.05
0.00 0.00 0.00 0.00 0.00 0.00 0.00 0.00 0.00 0.00 0.00 0.00 0.00 0.00 0.00 0.00 0.01 0.01 0.01 0.00 0.00 0.00 0.00 0.00 0.00 0.00 0.00 0.00 0.00 0.00 0.01 0.01 0.01 0.01 0.01 0.02 0.02 0.03 0.04 0.05 0.04 0.04 0.05
0.00 0.00 0.00 0.00 0.00 0.00 0.01 0.01 0.01 0.00 0.00 0.00 0.00 0.00 0.00 0.00 0.00 0.00 0.00 0.00 0.00 0.00 0.00 0.00 0.00 0.00 0.00 0.00 0.00 0.00 0.01 0.01 0.01 0.01 0.01 0.01 0.01 0.02 0.04 0.04 0.03 0.03 0.03
0.00 0.00 0.00 0.00 0.00 0.00 0.01 0.01 0.01 0.01 0.01 0.01 0.00 0.00 0.00 0.00 0.00 0.00 0.00 0.00 0.00 0.00 0.00 0.00 0.00 0.00 0.00 0.00 0.00 0.00 0.00 0.00 0.00 0.00 0.01 0.01 0.01 0.02 0.03 0.02 0.02 0.02 0.03
0.00 0.00 0.00 0.00 0.00 0.01 0.00 0.01 0.01 0.01 0.01 0.01 0.00 0.00 0.00 0.00 0.00 0.00 0.00 0.00 0.00 0.00 0.00 0.00 0.00 0.00 0.00 0.00 0.00 0.00 0.00 0.00 0.00 0.00 0.00 0.01 0.02 0.02 0.02 0.02 0.02 0.02 0.02
0.00 0.00 0.00 0.00 0.00 0.00 0.00 0.01 0.01 0.01 0.00 0.00 0.00 0.00 0.00 0.01 0.01 0.00 0.00 0.00 0.00 0.00 0.00 0.00 0.00 0.00 0.00 0.00 0.00 0.00 0.00 0.00 0.00 0.00 0.00 0.01 0.02 0.03 0.03 0.02 0.01 0.01 0.01
0.00 0.00 0.00 0.00 0.00 0.01 0.01 0.01 0.01 0.02 0.01 0.01 0.01 0.00 0.00 0.00 0.00 0.00 0.00 0.00 0.00 0.00 0.01 0.01 0.00 0.00 0.00 0.00 0.00 0.00 0.00 0.00 0.00 0.00 0.00 0.01 0.03 0.04 0.04 0.03 0.02 0.01 0.01
0.00 0.00 0.00 0.00 0.00 0.00 0.01 0.01 0.01 0.01 0.01 0.01 0.01 0.00 0.00 0.00 0.00 0.00 0.00 0.00 0.01 0.01 0.01 0.01 0.00 0.00 0.00 0.00 0.00 0.00 0.00 0.00 0.00 0.01 0.02 0.02 0.03 0.04 0.05 0.04 0.03 0.02 0.02
0.00 0.00 0.00 0.00 0.00 0.01 0.01 0.01 0.01 0.01 0.01 0.01 0.01 0.00 0.00 0.00 0.00 0.00 0.01 0.01 0.02 0.02 0.01 0.01 0.01 0.01 0.00 0.00 0.00 0.00 0.00 0.00 0.00 0.01 0.01 0.02 0.03 0.04 0.06 0.06 0.05 0.04 0.03
0.00 0.00 0.00 0.00 0.00 0.01 0.01 0.01 0.01 0.01 0.01 0.01 0.00 0.00 0.00 0.00 0.01 0.01 0.01 0.02 0.03 0.03 0.03 0.02 0.02 0.02 0.01 0.00 0.00 0.00 0.00 0.00 0.00 0.01 0.01 0.02 0.02 0.03 0.06 0.08 0.06 0.04 0.03
0.00 0.00 0.00 0.00 0.00 0.00 0.00 0.01 0.01 0.01 0.01 0.01 0.01 0.01 0.00 0.01 0.02 0.03 0.03 0.04 0.05 0.05 0.05 0.04 0.04 0.02 0.01 0.01 0.01 0.01 0.00 0.00 0.00 0.00 0.01 0.02 0.02 0.03 0.04 0.06 0.06 0.05 0.05
0.01 0.01 0.01 0.00 0.00 0.00 0.00 0.00 0.00 0.00 0.01 0.01 0.01 0.01 0.01 0.01 0.02 0.03 0.04 0.07 0.08 0.09 0.08 0.08 0.05 0.05 0.04 0.03 0.03 0.02 0.01 0.01 0.01 0.01 0.01 0.01 0.02 0.02 0.03 0.03 0.05 0.06 0.06
0.02 0.02 0.02 0.01 0.01 0.01 0.01 0.01 0.01 0.01 0.01 0.02 0.02 0.03 0.03 0.03 0.05 0.08 0.10 0.12 0.13 0.13 0.13 0.13 0.11 0.10 0.09 0.06 0.04 0.03 0.01 0.01 0.01 0.01 0.01 0.01 0.02 0.02 0.02 0.03 0.04 0.04 0.04
0.03 0.02 0.02 0.02 0.02 0.02 0.02 0.02 0.02 0.02 0.02 0.03 0.05 0.09 0.13 0.13 0.12 0.14 0.15 0.16 0.18 0.21 0.24 0.22 0.16 0.14 0.12 0.10 0.06 0.04 0.02 0.02 0.01 0.01 0.01 0.01 0.01 0.01 0.01 0.02 0.03 0.03 0.03
0.03 0.04 0.03 0.02 0.03 0.04 0.04 0.04 0.03 0.04 0.05 0.06 0.09 0.15 0.21 0.22 0.22 0.24 0.29 0.32 0.31 0.32 0.35 0.31 0.25 0.22 0.16 0.13 0.11 0.09 0.05 0.03 0.02 0.02 0.02 0.01 0.01 0.00 0.00 0.00 0.01 0.02 0.02
0.03 0.04 0.04 0.03 0.04 0.05 0.06 0.07 0.09 0.14 0.17 0.19 0.24 0.30 0.34 0.37 0.37 0.38 0.43 0.43 0.39 0.40 0.38 0.33 0.27 0.24 0.20 0.17 0.16 0.16 0.12 0.08 0.05 0.02 0.02 0.01 0.01 0.00 0.00 0.00 0.00 0.01 0.01
0.03 0.04 0.03 0.04 0.06 0.08 0.12 0.17 0.22 0.29 0.35 0.40 0.47 0.50 0.50 0.50 0.50 0.47 0.44 0.41 0.39 0.39 0.39 0.39 0.35 0.30 0.24 0.19 0.15 0.14 0.12 0.11 0.08 0.04 0.03 0.02 0.01 0.01 0.01 0.01 0.01 0.01 0.01
0.04 0.04 0.03 0.04 0.06 0.07 0.14 0.19 0.27 0.39 0.49 0.60 0.66 0.66 0.62 0.61 0.55 0.46 0.39 0.34 0.36 0.40 0.42 0.39 0.31 0.24 0.19 0.15 0.12 0.09 0.07 0.07 0.07 0.06 0.05 0.03 0.02 0.01 0.01 0.01 0.01 0.01 0.01
0.04 0.03 0.04 0.05 0.07 0.07 0.11 0.17 0.25 0.34 0.43 0.52 0.55 0.57 0.57 0.53 0.47 0.38 0.31 0.28 0.27 0.26 0.25 0.20 0.16 0.15 0.13 0.12 0.11 0.09 0.09 0.08 0.07 0.06 0.05 0.03 0.02 0.01 0.01 0.01 0.00 0.00 0.00
0.04 0.04 0.05 0.07 0.09 0.10 0.12 0.16 0.24 0.31 0.38 0.46 0.49 0.46 0.41 0.36 0.31 0.26 0.19 0.15 0.13 0.12 0.10 0.09 0.09 0.09 0.10 0.11 0.10 0.08 0.07 0.06 0.05 0.04 0.04 0.03 0.02 0.01 0.01 0.01 0.00 0.00 0.00
MSLP
1011.12 1011.27 1011.62 1012.12 1012.70 1013.28 1013.78 1014.16 1014.43 1014.61 1014.76 1014.94 1015.18 1015.52 1015.92 1016.35 1016.75 1017.07 1017.27 1017.36 1017.37 1017.33 1017.29 1017.29 1017.35 1017.47 1017.60 1017.73 1017.82 1017.84 1017.82 1017.76 1017.71 1017.70 1017.77 1017.90 1018.10 1018.33 1018.55 1018.75 1018.91 1019.03 1019.13
1011.08 1011.31 1011.72 1012.26 1012.86 1013.42 1013.90 1014.25 1014.49 1014.65 1014.80 1015.00 1015.28 1015.66 1016.10 1016.57 1016.99 1017.31 1017.50 1017.57 1017.55 1017.50 1017.46 1017.48 1017.57 1017.73 1017.90 1018.05 1018.14 1018.16 1018.12 1018.04 1017.97 1017.96 1018.02 1018.17 1018.39 1018.65 1018.90 1019.11 1019.27 1019.38 1019.45
1011.03 1011.34 1011.82 1012.40 1013.02 1013.59 1014.07 1014.42 1014.65 1014.82 1014.99 1015.21 1015.52 1015.92 1016.38 1016.84 1017.24 1017.54 1017.70 1017.74 1017.70 1017.65 1017.62 1017.68 1017.81 1018.00 1018.20 1018.36 1018.44 1018.44 1018.35 1018.24 1018.13 1018.10 1018.15 1018.31 1018.55 1018.83 1019.11 1019.34 1019.51 1019.62 1019.69
1010.99 1011.39 1011.94 1012.57 1013.22 1013.81 1014.30 1014.67 1014.93 1015.13 1015.32 1015.56 1015.89 1016.29 1016.73 1017.17 1017.53 1017.78 1017.90 1017.91 1017.87 1017.83 1017.83 1017.92 1018.09 1018.31 1018.52 1018.68 1018.73 1018.68 1018.55 1018.38 1018.23 1018.16 1018.20 1018.37 1018.62 1018.92 1019.22 1019.48 1019.67 1019.79 1019.87
1011.01 1011.49 1012.10 1012.78 1013.46 1014.08 1014.60 1015.00 1015.29 1015.52 1015.74 1016.01 1016.34 1016.72 1017.14 1017.52 1017.84 1018.04 1018.12 1018.12 1018.08 1018.06 1018.11 1018.24 1018.44 1018.68 1018.89 1019.02 1019.04 1018.93 1018.74 1018.51 1018.32 1018.22 1018.24 1018.40 1018.66 1018.98 1019.30 1019.58 1019.79 1019.93 1020.03
1011.11 1011.66 1012.30 1013.02 1013.73 1014.38 1014.92 1015.35 1015.68 1015.94 1016.19 1016.47 1016.79 1017.16 1017.53 1017.87 1018.13 1018.29 1018.36 1018.35 1018.34 1018.35 1018.44 1018.61 1018.84 1019.09 1019.28 1019.38 1019.34 1019.18 1018.93 1018.66 1018.43 1018.30 1018.32 1018.48 1018.74 1019.07 1019.40 1019.70 1019.92 1020.08 1020.19
1011.28 1011.86 1012.54 1013.26 1013.98 1014.64 1015.20 1015.65 1016.01 1016.30 1016.57 1016.85 1017.17 1017.50 1017.84 1018.14 1018.36 1018.50 1018.56 1018.57 1018.59 1018.64 1018.77 1018.98 1019.22 1019.46 1019.63 1019.69 1019.61 1019.40 1019.11 1018.81 1018.56 1018.43 1018.45 1018.62 1018.89 1019.23 1019.57 1019.86 1020.09 1020.25 1020.36
1011.49 1012.08 1012.76 1013.47 1014.18 1014.82 1015.38 1015.84 1016.21 1016.51 1016.80 1017.08 1017.39 1017.70 1018.01 1018.28 1018.48 1018.61 1018.68 1018.72 1018.77 1018.87 1019.04 1019.26 1019.50 1019.72 1019.86 1019.88 1019.76 1019.52 1019.21 1018.90 1018.67 1018.56 1018.61 1018.80 1019.10 1019.45 1019.79 1020.09 1020.31 1020.46 1020.56
1011.68 1012.26 1012.91 1013.59 1014.26 1014.88 1015.41 1015.86 1016.23 1016.55 1016.84 1017.13 1017.42 1017.73 1018.02 1018.27 1018.46 1018.60 1018.69 1018.77 1018.85 1018.98 1019.17 1019.39 1019.62 1019.80 1019.90 1019.87 1019.72 1019.47 1019.17 1018.89 1018.69 1018.64 1018.73 1018.97 1019.30 1019.68 1020.03 1020.32 1020.54 1020.67 1020.76
1011.79 1012.35 1012.96 1013.59 1014.22 1014.79 1015.30 1015.73 1016.09 1016.41 1016.70 1016.99 1017.30 1017.59 1017.88 1018.13 1018.33 1018.48 1018.60 1018.70 1018.81 1018.96 1019.14 1019.34 1019.54 1019.67 1019.72 1019.65 1019.47 1019.22 1018.95 1018.71 1018.58 1018.60 1018.77 1019.07 1019.45 1019.86 1020.23 1020.53 1020.74 1020.86 1020.93
1011.79 1012.33 1012.90 1013.49 1014.06 1014.59 1015.06 1015.47 1015.82 1016.14 1016.45 1016.75 1017.06 1017.36 1017.65 1017.91 1018.13 1018.30 1018.43 1018.55 1018.68 1018.82 1018.98 1019.15 1019.29 1019.36 1019.35 1019.24 1019.05 1018.80 1018.56 1018.39 1018.34 1018.44 1018.69 1019.06 1019.50 1019.95 1020.35 1020.66 1020.88 1021.00 1021.06
1011.70 1012.22 1012.77 1013.31 1013.84 1014.33 1014.77 1015.16 1015.51 1015.84 1016.15 1016.47 1016.79 1017.11 1017.41 1017.68 1017.91 1018.10 1018.25 1018.38 1018.51 1018.63 1018.76 1018.87 1018.95 1018.96 1018.89 1018.74 1018.52 1018.29 1018.09 1017.97 1017.99 1018.18 1018.50 1018.94 1019.44 1019.93 1020.36 1020.70 1020.92 1021.06 1021.13
1011.54 1012.07 1012.60 1013.12 1013.62 1014.08 1014.50 1014.88 1015.23 1015.57 1015.90 1016.23 1016.57 1016.91 1017.23 1017.51 1017.76 1017.96 1018.12 1018.25 1018.37 1018.47 1018.56 1018.62 1018.63 1018.58 1018.45 1018.26 1018.02 1017.80 1017.63 1017.56 1017.64 1017.89 1018.27 1018.77 1019.30 1019.82 1020.28 1020.64 1020.89 1021.04 1021.13
1011.37 1011.92 1012.46 1012.97 1013.45 1013.90 1014.30 1014.68 1015.03 1015.38 1015.73 1016.09 1016.45 1016.80 1017.13 1017.43 1017.69 1017.90 1018.07 1018.21 1018.31 1018.39 1018.44 1018.46 1018.42 1018.31 1018.14 1017.92 1017.68 1017.46 1017.31 1017.28 1017.39 1017.67 1018.09 1018.60 1019.16 1019.69 1020.16 1020.53 1020.79 1020.96 1021.07
1011.24 1011.82 1012.38 1012.89 1013.37 1013.80 1014.21 1014.58 1014.94 1015.30 1015.66 1016.03 1016.41 1016.78 1017.12 1017.44 1017.71 1017.93 1018.11 1018.24 1018.34 1018.42 1018.45 1018.44 1018.37 1018.24 1018.05 1017.81 1017.57 1017.36 1017.22 1017.21 1017.34 1017.62 1018.04 1018.54 1019.08 1019.60 1020.05 1020.41 1020.67 1020.85 1020.97
1011.20 1011.81 1012.38 1012.90 1013.37 1013.79 1014.19 1014.56 1014.92 1015.29 1015.66 1016.04 1016.43 1016.81 1017.16 1017.48 1017.76 1018.00 1018.18 1018.33 1018.44 1018.52 1018.55 1018.54 1018.48 1018.35 1018.17 1017.95 1017.72 1017.53 1017.41 1017.40 1017.52 1017.79 1018.17 1018.64 1019.13 1019.60 1020.01 1020.33 1020.57 1020.73 1020.85
1011.24 1011.86 1012.43 1012.94 1013.40 1013.81 1014.19 1014.56 1014.92 1015.28 1015.66 1016.05 1016.44 1016.82 1017.18 1017.51 1017.80 1018.05 1018.25 1018.42 1018.55 1018.65 1018.71 1018.72 1018.68 1018.59 1018.45 1018.26 1018.08 1017.91 1017.81 1017.81 1017.92 1018.16 1018.49 1018.89 1019.31 1019.71 1020.06 1020.33 1020.52 1020.65 1020.74
1011.36 1011.95 1012.49 1012.97 1013.40 1013.79 1014.15 1014.50 1014.86 1015.22 1015.60 1015.99 1016.39 1016.78 1017.15 1017.49 1017.79 1018.05 1018.27 1018.46 1018.62 1018.75 1018.84 1018.90 1018.91 1018.88 1018.79 1018.67 1018.54 1018.42 1018.35 1018.36 1018.46 1018.65 1018.93 1019.26 1019.60 1019.92 1020.19 1020.39 1020.52 1020.61 1020.66
1011.50 1012.04 1012.52 1012.95 1013.33 1013.68 1014.02 1014.35 1014.70 1015.07 1015.46 1015.86 1016.27 1016.67 1017.05 1017.40 1017.72 1018.00 1018.24 1018.45 1018.64 1018.80 1018.93 1019.04 1019.11 1019.14 1019.12 1019.07 1019.00 1018.94 1018.91 1018.93 1019.02 1019.19 1019.41 1019.67 1019.93 1020.17 1020.37 1020.50 1020.58 1020.61 1020.63
1011.67 1012.10 1012.50 1012.84 1013.16 1013.47 1013.78 1014.11 1014.46 1014.84 1015.25 1015.68 1016.11 1016.54 1016.94 1017.31 1017.65 1017.94 1018.20 1018.42 1018.63 1018.81 1018.98 1019.12 1019.24 1019.33 1019.38 1019.39 1019.39 1019.38 1019.39 1019.43 1019.52 1019.66 1019.84 1020.04 1020.24 1020.41 1020.54 1020.62 1020.65 1020.65 1020.63
1011.85 1012.16 1012.44 1012.70 1012.95 1013.22 1013.50 1013.83 1014.20 1014.61 1015.05 1015.52 1016.00 1016.46 1016.90 1017.30 1017.66 1017.97 1018.23 1018.46 1018.67 1018.86 1019.04 1019.20 1019.34 1019.47 1019.56 1019.63 1019.68 1019.71 1019.75 1019.81 1019.89 1020.00 1020.14 1020.30 1020.45 1020.58 1020.67 1020.72 1020.72 1020.70 1020.67
1012.10 1012.26 1012.42 1012.59 1012.77 1013.00 1013.28 1013.62 1014.02 1014.48 1014.98 1015.50 1016.04 1016.55 1017.04 1017.47 1017.85 1018.17 1018.43 1018.66 1018.85 1019.02 1019.18 1019.34 1019.48 1019.61 1019.72 1019.81 1019.88 1019.94 1019.99 1020.05 1020.12 1020.21 1020.31 1020.42 1020.54 1020.63 1020.71 1020.75 1020.76 1020.75 1020.73
1012.47 1012.50 1012.55 1012.63 1012.77 1012.97 1013.25 1013.62 1014.06 1014.57 1015.14 1015.73 1016.33 1016.90 1017.43 1017.90 1018.30 1018.62 1018.87 1019.07 1019.23 1019.37 1019.49 1019.61 1019.72 1019.83 1019.92 1020.00 1020.07 1020.12 1020.16 1020.19 1020.23 1020.29 1020.35 1020.43 1020.51 1020.59 1020.65 1020.71 1020.74 1020.77 1020.78
1013.06 1012.98 1012.94 1012.96 1013.06 1013.25 1013.54 1013.93 1014.42 1014.99 1015.61 1016.26 1016.92 1017.54 1018.11 1018.60 1019.01 1019.33 1019.56 1019.73 1019.84 1019.92 1019.99 1020.05 1020.11 1020.17 1020.23 1020.27 1020.30 1020.32 1020.32 1020.32 1020.31 1020.31 1020.33 1020.36 1020.40 1020.46 1020.53 1020.59 1020.66 1020.73 1020.80
1013.89 1013.75 1013.66 1013.65 1013.72 1013.91 1014.21 1014.62 1015.14 1015.74 1016.41 1017.10 1017.79 1018.44 1019.02 1019.52 1019.93 1020.23 1020.43 1020.55 1020.62 1020.65 1020.65 1020.65 1020.65 1020.65 1020.66 1020.65 1020.63 1020.59 1020.54 1020.48 1020.41 1020.34 1020.30 1020.27 1020.27 1020.30 1020.35 1020.43 1020.53 1020.64 1020.77
1014.98 1014.83 1014.73 1014.70 1014.77 1014.95 1015.25 1015.67 1016.19 1016.80 1017.47 1018.17 1018.86 1019.50 1020.08 1020.56 1020.94 1021.21 1021.38 1021.46 1021.48 1021.45 1021.41 1021.35 1021.29 1021.24 1021.18 1021.12 1021.04 1020.95 1020.83 1020.70 1020.57 1020.43 1020.31 1020.22 1020.16 1020.14 1020.17 1020.24 1020.35 1020.50 1020.66
Thickness
5818 5813 5798 5794 5792 5790 5788 5786 5783 5781 5778 5776 5772 5770 5767 5765 5763 5761 5760 5759 5757 5756 5755 5754 5753 5752 5752 5751 5750 5750 5749 5748 5747 5746 5745 5744 5743 5742 5741 5740 5741 5740 5736
5819 5809 5795 5792 5789 5787 5785 5783 5781 5778 5775 5772 5769 5766 5764 5761 5759 5758 5756 5755 5754 5753 5752 5751 5749 5748 5748 5747 5746 5745 5744 5744 5743 5742 5741 5740 5739 5737 5737 5737 5738 5736 5732
5814 5805 5793 5788 5786 5784 5782 5780 5777 5774 5771 5768 5765 5763 5760 5758 5756 5754 5753 5751 5750 5749 5748 5747 5746 5745 5744 5743 5742 5741 5740 5739 5739 5739 5739 5741 5737 5733 5733 5732 5731 5729 5727
5807 5799 5792 5784 5782 5780 5778 5776 5773 5771 5768 5764 5762 5759 5756 5754 5752 5750 5749 5748 5747 5746 5745 5744 5743 5741 5740 5739 5738 5737 5736 5735 5735 5737 5740 5739 5735 5729 5728 5727 5726 5724 5724
5800 5795 5787 5780 5777 5775 5773 5771 5770 5767 5764 5761 5758 5755 5753 5750 5748 5747 5746 5745 5744 5743 5742 5741 5739 5738 5737 5736 5735 5733 5732 5732 5733 5736 5738 5735 5732 5725 5724 5723 5721 5720 5719
5796 5790 5782 5776 5773 5771 5769 5768 5766 5763 5760 5757 5755 5752 5749 5747 5745 5744 5744 5742 5741 5740 5739 5738 5736 5735 5734 5732 5731 5730 5729 5729 5731 5737 5734 5732 5728 5722 5720 5719 5717 5716 5715
5793 5788 5779 5772 5769 5767 5765 5764 5762 5759 5757 5754 5751 5749 5746 5744 5743 5742 5741 5740 5739 5738 5737 5735 5733 5732 5731 5730 5729 5728 5727 5728 5733 5735 5732 5730 5725 5719 5716 5715 5714 5713 5711
5792 5785 5775 5767 5765 5763 5761 5760 5758 5756 5753 5751 5748 5746 5744 5742 5741 5740 5739 5738 5737 5736 5734 5733 5731 5730 5729 5728 5727 5726 5726 5726 5731 5733 5730 5727 5720 5716 5714 5712 5710 5709 5708
5790 5784 5774 5767 5762 5759 5758 5756 5754 5752 5750 5748 5745 5743 5741 5739 5738 5738 5737 5736 5735 5734 5733 5731 5730 5728 5727 5726 5725 5724 5724 5725 5730 5731 5729 5725 5717 5713 5711 5709 5707 5706 5704
5788 5783 5775 5770 5765 5760 5756 5752 5750 5749 5747 5745 5743 5741 5739 5738 5737 5736 5736 5734 5733 5732 5731 5730 5728 5727 5725 5724 5723 5722 5723 5724 5731 5731 5729 5722 5714 5711 5708 5706 5704 5703 5701
5784 5781 5776 5771 5766 5763 5759 5752 5748 5746 5744 5742 5741 5739 5738 5740 5740 5737 5736 5733 5732 5731 5730 5729 5727 5726 5725 5724 5722 5721 5722 5728 5733 5731 5727 5719 5712 5709 5706 5704 5701 5700 5698
5778 5778 5776 5773 5767 5765 5761 5754 5751 5748 5745 5745 5744 5741 5741 5742 5741 5740 5734 5732 5731 5730 5729 5728 5726 5725 5726 5729 5726 5722 5726 5728 5731 5728 5724 5715 5710 5706 5704 5701 5699 5697 5695
5779 5776 5776 5773 5768 5766 5761 5756 5754 5752 5748 5747 5746 5743 5742 5741 5739 5738 5736 5732 5731 5730 5732 5729 5729 5731 5731 5731 5730 5729 5729 5730 5730 5728 5722 5713 5708 5704 5702 5699 5696 5694 5692
5779 5775 5775 5772 5767 5764 5762 5758 5755 5753 5750 5749 5745 5743 5742 5741 5739 5739 5737 5737 5735 5734 5732 5733 5732 5731 5729 5729 5728 5729 5728 5727 5727 5725 5718 5711 5706 5702 5700 5697 5694 5692 5690
5779 5775 5773 5770 5765 5761 5759 5757 5755 5753 5752 5749 5745 5743 5741 5740 5739 5738 5736 5733 5734 5733 5731 5729 5730 5729 5728 5728 5728 5727 5727 5725 5724 5722 5716 5708 5703 5700 5697 5694 5691 5689 5687
5778 5774 5772 5767 5762 5758 5755 5754 5753 5752 5748 5749 5745 5743 5739 5739 5737 5735 5733 5730 5730 5729 5729 5727 5727 5725 5725 5726 5725 5723 5722 5722 5718 5715 5714 5707 5701 5698 5694 5691 5689 5686 5684
5775 5772 5768 5764 5760 5756 5754 5753 5752 5750 5747 5746 5743 5740 5737 5736 5734 5731 5731 5728 5727 5724 5722 5721 5720 5720 5720 5720 5719 5717 5716 5714 5713 5710 5709 5706 5701 5695 5691 5687 5685 5682 5679
5774 5769 5766 5764 5759 5754 5752 5750 5751 5749 5746 5744 5741 5738 5734 5732 5729 5727 5726 5725 5721 5719 5717 5715 5714 5714 5713 5713 5713 5711 5710 5706 5705 5703 5702 5700 5698 5694 5688 5683 5680 5677 5675
5771 5767 5763 5762 5758 5755 5751 5748 5747 5745 5743 5740 5737 5734 5731 5727 5723 5721 5720 5717 5713 5711 5710 5709 5707 5705 5704 5703 5703 5701 5702 5701 5698 5697 5695 5693 5690 5687 5684 5678 5674 5672 5669
5767 5764 5761 5759 5757 5754 5750 5747 5744 5742 5739 5735 5733 5729 5725 5721 5717 5714 5712 5709 5706 5703 5701 5699 5697 5695 5694 5692 5693 5693 5692 5692 5690 5689 5687 5685 5682 5679 5678 5674 5670 5666 5663
5761 5759 5757 5756 5755 5752 5749 5745 5740 5737 5734 5731 5727 5723 5719 5716 5713 5709 5706 5703 5699 5696 5693 5691 5689 5686 5684 5682 5681 5680 5681 5681 5680 5678 5677 5677 5674 5671 5669 5666 5663 5660 5657
5752 5753 5753 5752 5751 5749 5747 5743 5739 5734 5729 5725 5721 5715 5711 5709 5706 5702 5698 5696 5693 5688 5685 5684 5681 5678 5675 5673 5673 5670 5669 5669 5669 5668 5667 5666 5664 5661 5659 5656 5653 5650 5648
5741 5744 5747 5747 5746 5744 5742 5738 5732 5727 5720 5716 5711 5705 5702 5700 5696 5693 5690 5687 5685 5683 5681 5677 5674 5671 5668 5666 5665 5664 5661 5660 5660 5658 5654 5653 5650 5648 5647 5644 5641 5638 5636
5729 5734 5736 5737 5737 5736 5735 5732 5727 5720 5713 5708 5702 5696 5691 5689 5686 5683 5680 5677 5675 5674 5672 5670 5668 5667 5663 5660 5655 5653 5652 5652 5649 5646 5645 5642 5639 5636 5635 5633 5629 5626 5624
5716 5720 5722 5724 5724 5725 5724 5722 5718 5712 5706 5697 5692 5686 5681 5677 5673 5671 5669 5666 5664 5662 5660 5659 5657 5656 5654 5651 5647 5644 5640 5638 5637 5636 5634 5631 5628 5625 5623 5619 5616 5613 5610
5701 5704 5706 5708 5707 5708 5709 5707 5705 5700 5693 5686 5680 5674 5669 5662 5657 5655 5655 5653 5650 5648 5647 5646 5644 5642 5639 5637 5634 5632 5630 5627 5625 5624 5621 5618 5615 5613 5610 5606 5603 5600 5597